Terminal Aerodrome Forecast
Issued by NWS Wilmington, OH

Current Version | Previous Version | Text Only | Print | Product List | Glossary Off
Versions: 1 2 3 4 5 6 7 8 9 10 11 12 13 14 15 16 17 18 19 20 21 22 23 24 25 26 27 28 29 30 31 32 33 34 35 36 37 38 39 40 41

840
FTUS41 KILN 232339 AAA
TAFCVG
TAF AMD
KCVG 232339Z 2400/2506 08007KT 6SM -RA BR SCT007 SCT070 OVC110
     FM240200 32006KT P6SM SCT007 BKN150
     FM241400 28011KT P6SM FEW035 SCT250
     FM250000 29004KT P6SM SCT250=

USA.gov is the U.S. government's official web portal to all federal, state and local government web resources and services.